Probability
10 34 56 43 15 2 0 0 0 0 0 0 0 0 0 0 0 0 0 0 0 0 0 0 0 0 0 0 0 0 0 0 0 0 0 0 0 0 0 0 0 0 0
7 27 46 35 12 2 0 0 0 0 0 0 0 0 0 0 0 0 0 0 0 0 0 0 0 0 0 0 0 0 0 0 0 0 0 0 0 0 0 0 0 0 0
4 14 22 18 7 1 0 0 0 0 0 0 0 0 0 0 0 0 0 0 0 0 0 0 0 0 0 0 0 0 0 0 0 0 0 0 0 0 0 0 0 0 0
1 3 4 4 3 1 0 0 0 0 0 0 0 0 0 0 0 0 0 0 0 0 0 0 0 0 0 0 0 0 0 0 0 0 0 0 0 0 0 0 0 0 0
0 0 1 1 1 0 0 0 0 0 0 0 0 0 0 0 0 0 0 0 0 0 0 0 0 0 0 0 0 0 0 0 0 0 0 0 0 0 0 0 0 0 0
0 0 1 1 1 0 0 0 0 0 0 0 0 0 0 0 0 0 0 0 0 0 0 0 0 0 0 0 0 0 0 0 0 0 0 0 0 0 0 0 0 0 0
0 0 0 0 0 0 0 0 0 0 0 0 0 0 0 0 0 0 0 0 0 0 0 0 0 0 0 0 0 0 0 0 0 0 0 0 0 0 0 0 0 0 0
0 0 0 0 0 0 0 0 0 0 0 0 0 0 0 0 0 0 0 0 0 0 0 0 0 0 0 0 0 0 0 0 0 0 0 0 0 0 0 0 0 0 0
0 0 0 0 0 0 0 0 0 0 0 0 0 0 0 0 0 0 0 0 0 0 0 0 0 0 0 0 0 0 0 0 0 0 0 0 0 0 0 0 0 0 0
0 0 0 0 0 0 0 0 0 0 0 0 0 0 0 0 0 0 0 0 0 0 0 0 0 0 0 0 0 0 0 0 0 0 0 0 0 0 0 0 0 0 0
0 0 0 0 0 0 0 0 0 0 0 0 0 0 0 0 0 0 0 0 0 0 0 0 0 0 0 0 0 0 0 0 0 0 0 0 0 0 0 0 0 0 0
0 0 0 0 0 0 0 0 0 0 0 0 0 0 0 0 0 0 0 0 0 0 0 0 0 0 0 0 0 0 0 0 0 0 0 0 0 0 0 0 0 0 0
0 0 0 0 0 0 0 0 0 0 0 0 0 0 0 0 0 0 0 0 0 0 0 0 0 0 0 0 0 0 0 0 0 0 0 0 0 0 0 0 0 0 0
0 0 0 0 0 0 0 0 0 0 0 0 0 0 0 0 0 0 0 0 0 0 0 0 0 0 0 0 0 0 0 0 0 0 0 0 0 0 0 0 0 0 0
0 0 0 0 0 0 0 0 0 0 0 0 0 0 0 0 0 0 0 0 0 0 0 0 0 0 0 0 0 0 0 0 0 0 0 0 0 0 0 0 0 0 0
0 0 0 0 0 0 0 0 0 0 1 0 0 0 0 0 0 0 0 0 0 0 0 0 0 0 0 0 0 0 0 0 0 0 0 0 0 0 0 0 0 0 0
0 0 0 0 0 0 0 0 0 0 0 0 0 0 0 0 0 0 0 0 0 0 0 0 0 0 0 0 0 0 0 0 0 0 0 0 0 0 0 0 0 0 0
0 0 0 0 0 0 0 0 0 0 0 0 0 0 0 0 0 0 0 0 0 0 0 0 0 0 0 0 0 0 0 0 0 0 0 0 0 0 0 0 0 0 0
0 0 0 0 0 0 0 0 0 0 0 0 0 0 0 0 0 0 0 0 0 0 0 0 0 0 0 0 0 0 0 0 0 0 0 0 0 0 0 0 0 0 0
0 0 0 0 0 0 0 0 0 0 0 0 0 0 0 0 0 0 0 0 0 0 0 0 0 0 0 0 0 0 0 0 0 0 0 0 0 0 0 0 0 0 0
0 0 0 0 0 0 0 0 0 0 0 0 0 0 0 0 0 0 0 0 0 0 0 0 0 0 0 0 0 0 0 0 0 0 0 0 0 0 0 0 0 0 0
0 0 0 0 0 0 0 0 0 0 0 0 0 0 0 0 0 0 0 0 0 0 0 0 0 0 0 0 0 0 0 0 0 0 0 0 0 0 0 0 0 0 0
0 0 0 0 0 0 0 0 0 0 0 0 0 0 0 0 0 0 0 0 0 0 0 0 0 0 0 0 0 0 0 0 0 0 0 0 0 0 0 0 0 0 0
0 0 0 0 0 0 0 0 0 0 0 0 0 0 0 0 0 0 0 0 0 0 0 0 0 0 0 0 0 0 0 0 0 0 0 0 0 0 0 0 0 0 0
0 0 0 0 0 0 0 0 0 0 0 0 0 0 0 0 0 0 0 0 0 0 0 0 0 0 0 0 0 0 0 0 0 0 0 0 0 0 0 0 0 0 0
0 0 0 0 0 0 0 0 0 0 0 0 0 0 0 0 0 0 0 0 0 0 0 0 0 0 0 0 0 0 0 0 0 0 0 0 0 0 0 0 0 0 0
Wind_Speed
8 14 17 17 16 15 14 13 10 9 8 7 6 6 6 6 6 6 5 5 6 7 8 8 10 9 7 6 6 6 5 5 5 5 6 6 6 4 4 3 4 6 2
12 15 16 17 16 15 14 13 10 8 7 6 5 5 5 4 4 4 5 5 6 7 7 9 10 10 9 6 5 4 4 3 3 4 6 7 8 7 3 2 4 4 3
12 15 13 15 15 14 13 12 11 8 6 5 4 3 3 3 4 4 5 6 7 7 7 8 8 9 9 8 6 5 3 3 3 6 10 7 7 11 7 3 4 5 5
11 14 12 14 14 13 13 12 11 8 6 4 2 2 2 2 3 3 5 6 6 6 6 6 7 6 7 7 6 5 4 4 5 6 7 7 4 7 6 4 5 6 5
8 11 14 15 13 13 12 12 10 8 6 4 2 1 1 2 1 3 5 5 5 5 4 5 5 5 4 4 4 4 4 5 5 7 6 6 3 4 6 4 6 7 7
8 12 14 14 13 12 12 11 10 8 6 4 2 0 2 3 1 4 6 5 4 3 3 3 3 3 3 4 5 6 7 6 5 5 5 5 4 6 5 5 7 9 9
8 13 13 14 12 11 12 12 10 8 6 4 2 1 2 4 2 4 6 5 3 1 2 2 3 4 4 4 6 7 7 6 5 5 5 5 5 10 9 9 9 11 12
8 11 12 12 11 10 11 12 11 9 7 5 3 1 2 4 4 5 6 5 3 3 3 4 5 6 7 7 8 9 8 7 7 6 6 5 9 13 13 12 12 13 14
7 10 11 9 8 9 9 10 10 9 7 5 3 2 1 1 2 3 5 5 5 4 5 6 8 9 9 10 10 10 9 8 5 5 9 6 10 14 14 14 14 15 16
6 7 11 10 9 8 8 10 10 9 8 6 4 3 4 4 6 7 7 8 6 5 6 8 9 10 11 11 12 12 11 8 6 7 7 8 15 16 15 15 16 17 18
5 5 6 10 10 10 9 11 10 8 8 7 6 8 6 5 7 7 8 6 6 6 7 9 11 12 11 11 13 15 11 5 6 7 6 9 13 15 15 16 17 19 20
7 6 5 5 7 7 7 8 6 7 7 7 6 8 6 6 2 4 8 8 7 8 9 11 14 13 10 6 10 12 5 7 8 7 6 12 15 17 17 18 18 20 21
11 8 7 6 6 6 4 4 4 4 5 7 7 5 5 3 2 2 3 4 5 7 5 8 8 6 6 6 5 3 6 6 4 4 5 11 14 17 18 19 20 21 22
8 11 8 7 6 6 6 4 3 3 3 3 3 2 2 2 1 1 1 1 2 2 3 3 3 5 5 5 5 6 6 4 4 3 5 11 13 17 20 21 21 22 23
3 7 8 7 6 6 4 4 3 3 4 4 3 2 2 1 0 1 1 1 2 2 2 2 3 5 5 5 5 6 6 6 6 6 5 11 12 15 20 21 22 23 23
2 4 5 5 5 6 5 4 3 2 3 2 3 3 3 2 2 2 3 3 2 2 2 2 4 4 4 4 5 6 7 7 6 6 6 7 11 13 17 21 22 22 23
4 3 3 2 2 4 6 6 3 2 4 4 4 4 3 2 2 2 2 3 3 3 4 3 4 4 4 5 5 6 5 6 7 7 7 6 6 10 13 18 19 21 22
1 1 2 2 2 3 4 5 4 4 5 5 5 4 5 5 5 4 4 4 4 4 4 4 4 4 5 5 5 5 5 5 7 7 7 7 6 5 7 11 14 18 20
2 4 4 4 4 6 7 7 8 8 8 7 7 6 7 8 8 6 5 5 6 4 4 5 4 4 5 6 6 5 5 6 7 8 8 7 6 6 5 8 12 14 17
4 6 6 7 8 9 8 9 8 9 8 7 6 7 8 7 8 7 5 6 6 4 4 5 6 6 5 6 8 7 7 8 7 5 7 8 8 9 8 9 8 10 15
5 6 7 8 8 7 7 7 6 6 5 5 6 7 8 7 8 7 5 5 6 5 5 6 5 6 5 5 5 6 6 6 4 7 9 9 9 9 9 10 8 8 8
6 7 8 8 9 8 7 6 6 6 5 5 4 6 7 8 7 7 7 5 5 4 6 6 5 4 4 5 4 5 5 5 4 10 8 6 8 7 8 11 10 11 10
7 7 8 9 10 10 9 8 7 5 5 4 4 4 6 7 7 6 7 5 5 5 4 5 5 5 4 5 4 3 4 5 8 5 6 8 7 7 8 8 10 10 10
7 7 8 9 9 8 7 7 7 6 5 4 3 3 5 7 7 6 5 5 5 4 5 5 5 4 5 5 4 3 4 6 6 7 5 5 9 10 9 10 9 9 10
7 7 7 8 9 9 8 8 8 6 5 4 4 5 5 5 6 6 5 4 4 4 5 5 5 5 3 4 4 5 6 6 6 8 11 7 6 6 7 8 8 8 10
7 7 7 9 9 9 9 8 8 8 7 6 6 4 4 3 4 5 5 5 4 3 4 4 4 5 4 5 4 4 5 5 6 7 13 14 10 6 7 7 8 8 8
Wind_Direction
119 134 152 152 151 149 146 140 134 126 115 101 95 95 89 77 80 82 63 40 34 27 25 24 23 26 38 68 85 81 72 63 44 17 349 327 304 310 353 5 331 317 222
122 135 150 154 155 153 149 143 138 133 122 110 103 101 99 84 77 72 49 38 40 36 25 17 16 18 24 43 69 74 68 55 22 349 321 302 269 242 237 305 319 327 331
120 133 148 154 158 157 152 147 143 140 132 120 111 105 109 100 93 84 66 53 44 38 27 17 11 14 22 37 50 51 44 29 355 331 310 284 253 220 214 232 283 295 311
123 137 152 153 160 159 156 151 148 145 138 127 112 101 98 111 122 106 87 64 51 38 25 16 10 11 20 32 36 31 25 7 348 319 303 299 322 181 200 234 267 272 288
120 136 141 151 160 161 159 154 151 147 139 130 119 75 52 31 165 138 111 87 69 49 29 15 11 4 3 3 356 341 333 337 338 298 279 289 305 230 224 246 270 277 270
131 123 139 149 158 161 160 157 154 149 143 137 127 93 329 330 270 162 132 116 98 65 32 9 357 353 340 320 308 304 306 315 317 285 292 303 302 284 261 257 261 271 267
126 125 142 149 158 163 163 161 158 155 150 142 135 118 8 9 36 145 142 141 135 92 351 333 315 306 297 289 287 287 290 295 273 265 266 267 272 274 269 264 260 262 267
120 126 139 150 158 167 169 166 164 163 158 151 145 122 50 43 63 122 150 168 197 250 294 304 301 295 288 283 280 278 276 273 282 290 282 262 257 261 263 263 262 261 263
131 133 144 155 161 169 172 171 171 170 167 165 168 151 94 105 122 160 182 203 229 261 286 295 295 294 293 292 289 285 278 267 262 264 269 262 255 257 258 259 260 260 259
148 153 155 161 169 171 175 180 178 176 174 177 186 185 180 205 223 221 213 214 225 254 281 289 291 291 292 292 288 280 268 262 250 253 252 249 248 252 255 257 259 260 260
170 172 168 163 171 174 179 180 178 178 186 190 201 209 206 225 227 216 218 197 207 247 272 280 282 281 282 280 273 263 257 243 245 252 248 248 251 254 256 257 259 261 261
184 191 186 176 163 169 172 157 177 184 185 198 215 196 202 221 214 113 156 195 224 251 267 271 269 273 275 263 262 256 236 237 242 246 242 241 249 255 258 259 259 260 260
180 182 183 187 171 167 152 158 174 181 176 194 217 184 184 191 142 157 176 201 225 237 244 258 255 248 242 244 250 239 229 238 242 250 257 258 254 260 262 263 263 263 262
166 171 179 181 175 177 158 166 175 169 165 175 176 172 164 135 109 250 198 210 226 232 227 247 259 267 264 269 273 268 262 260 259 258 260 265 255 259 265 267 267 268 266
165 155 167 175 176 171 160 151 171 178 163 166 141 116 82 80 106 30 348 293 274 284 287 277 281 291 300 302 297 302 306 298 288 279 273 271 262 257 268 273 273 273 273
118 137 148 164 182 165 149 144 166 178 123 93 107 95 71 46 42 24 345 342 336 325 313 314 313 314 309 307 311 307 296 293 289 291 289 287 282 268 266 275 278 278 277
38 41 84 114 164 160 151 152 156 142 113 91 81 73 66 59 59 37 6 3 354 354 356 356 347 339 328 326 315 311 312 312 307 299 291 283 278 275 268 274 280 282 282
104 104 107 137 174 154 127 123 108 86 81 75 67 65 57 49 53 52 38 20 6 13 12 3 355 349 337 328 315 306 304 297 290 288 291 288 283 279 278 277 277 281 283
144 123 117 134 132 109 94 85 82 73 66 64 58 53 52 44 42 52 45 26 10 20 15 3 0 353 336 327 319 316 316 304 294 299 300 303 309 315 320 316 310 299 289
82 102 104 96 95 94 89 84 77 72 66 62 59 55 53 48 42 38 41 31 15 17 11 9 360 353 340 338 330 322 305 296 297 317 333 343 338 337 337 334 328 321 318
82 94 103 106 104 100 100 98 93 87 77 66 62 61 56 50 47 43 31 29 20 13 18 11 2 348 341 337 329 316 292 298 329 359 345 334 329 334 339 336 330 325 319
93 90 91 92 92 91 93 94 98 98 91 85 70 61 59 52 44 45 36 27 19 15 20 7 5 353 339 345 337 327 328 319 358 341 307 316 322 323 327 324 318 312 307
82 84 90 91 93 96 99 101 104 97 96 86 81 74 65 60 47 40 39 29 18 22 17 2 12 0 337 333 352 344 333 310 315 276 333 312 307 325 317 308 301 301 306
88 85 91 97 102 109 113 110 109 105 103 103 104 100 91 75 58 34 37 31 24 26 19 359 4 346 345 331 331 337 303 298 303 302 297 302 316 309 304 307 308 309 309
91 86 86 85 82 80 80 86 94 96 100 91 79 67 81 79 66 34 29 25 29 28 9 351 350 344 338 329 321 313 308 302 290 300 300 294 290 289 297 304 308 307 305
97 90 88 86 80 76 77 77 84 87 81 75 67 55 54 65 58 32 20 16 22 16 350 337 346 334 316 305 299 296 293 292 300 298 298 302 298 290 294 296 299 299 302